Regional Weather Roundup
Issued by NWS Charleston, SC

Current Version | Previous Version | Graphics & Text | Print | Product List | Glossary On
Versions: 1 2 3 4 5 6 7 8 9 10 11 12 13 14 15 16 17 18 19 20 21 22 23 24 25 26 27 28 29 30 31 32 33 34 35 36 37 38 39 40 41 42 43 44 45 46 47 48 49 50
000
ASUS42 KCHS 310811
RWRCHS
REGIONAL WEATHER ROUNDUP
NATIONAL WEATHER SERVICE CHARLESTON SC
300 AM EST SAT JAN 31 2015

NOTE: "FAIR" INDICATES FEW OR NO CLOUDS BELOW 12,000 FEET WITH NO
SIGNIFICANT WEATHER AND/OR OBSTRUCTIONS TO VISIBILITY.

NOT ALL STATIONS ARE QUALITY CONTROLLED BY THE NATIONAL
WEATHER SERVICE. USE DATA WITH CAUTION...ESPECIALLY
DEWPOINT OBSERVATIONS.

SCZ027-030-031-034>040-042>050-310900-
...SOUTHEAST SOUTH CAROLINA...

CITY           SKY/WX    TMP DP  RH WIND       PRES   REMARKS
N CHARLESTON   CLEAR     35  18  49 NE6       30.32R WCI  30
WATERFRONT PRK   N/A     39 N/A N/A NE10G16     N/A  WCI  32
MOUNT PLEASANT FAIR      34  23  64 CALM      30.32S
PINOPOLIS        N/A     41  21  45 NE14      30.24R
MONCKS CORNER  FAIR      39  16  38 N7        30.32R WCI  34
SUMMERVILLE    NOT AVBL
BEAUFORT MCAS  CLEAR     35  25  66 N5        30.33R WCI  31
BEAUFORT ARPT  FAIR      37  30  75 N6        30.32S WCI  33
HILTON HEAD IS CLEAR     43  27  52 N7        30.33S
WALTERBORO     SUNNY     30  27  86 CALM      30.34R
ALLENDALE      FAIR      32  25  74 CALM      30.32S

...SOUTHERN MIDLANDS AND PEE DEE...

CITY           SKY/WX    TMP DP  RH WIND       PRES   REMARKS
GEORGETOWN     NOT AVBL
KINGSTREE      NOT AVBL
ORANGEBURG     CLEAR     31  25  78 N3        30.33R
BARNWELL       FAIR      30  25  80 CALM      30.34R
AIKEN          FAIR      32  19  59 N3        30.36R
MANNING        FAIR      32  23  69 CALM      30.33R
COLUMBIA       CLEAR     31  22  69 CALM      30.34R
SUMTER         CLEAR     27  14  58 N7        30.32R WCI  20
FLORENCE       CLEAR     30  13  49 N7        30.33R WCI  23
MYRTLE BEACH   CLEAR     36  12  38 N9        30.33R WCI  29
N MYRTLE BEACH CLEAR     33  12  41 N7        30.31R WCI  27

$$

GAZ063-065-086>088-099>101-113>116-118-119-134>141-150-310900-
...SOUTHEAST GEORGIA...

CITY           SKY/WX    TMP DP  RH WIND       PRES   REMARKS
SAVANNAH ARPT  CLEAR     35  26  69 N5        30.33R WCI  31
HUNTER AAF     CLEAR     40  26  57 N5        30.31R WCI  36
FORT STEWART   CLEAR     33  28  81 N1        30.31R
STATESBORO     CLEAR     30  30 100 CALM      30.32S
SYLVANIA       SUNNY     32  27  83 CALM      30.34R
CLAXTON        FAIR      32  32 100 CALM      30.33S

...CSRA...CENTRAL AND FAR SOUTHEAST GEORGIA...

CITY           SKY/WX    TMP DP  RH WIND       PRES   REMARKS
THOMSON        CLEAR     28  27  93 CALM      30.38S
AUGUSTA-BUSH   CLEAR     26  20  77 CALM      30.35R
AUGUSTA-DANIEL CLEAR     36  17  46 N5        30.33R WCI  32
SWAINSBORO     FAIR      32  28  86 CALM      30.34R
VIDALIA        CLEAR     36  28  75 N3        30.33S
EASTMAN        FAIR      30  30 100 N3        30.36R
HAZLEHURST     FAIR      39  29  68 N5        30.31S WCI  35
ALMA           PTCLDY    38  26  62 N5        30.31S WCI  34
WAYCROSS       MOCLDY    43  32  64 N8        30.31S
JESUP          FAIR      43  32  65 CALM      30.32R
BAXLEY         FAIR      39  30  70 N5        30.31S WCI  36
BRUNSWICK      PTCLDY    43  28  56 N6        30.31R
SAINT SIMONS   PTCLDY    41  29  62 N7        30.30R

$$

SCZ027-028-034-036>038-045-046-048>050-GAZ119-141-310900-
...LAKE AND SUPPLEMENTAL COASTAL OBSERVATIONS...

STATION/POSITION TIME  TEMP    WIND        PRES    WAVE   SWELL
                       AIR SEA DIR/SP/G            HT/PER HT/PER/DIR
                 (UTC) (F)     (DEG/KT/KT) (MB)    (FT/S) (FT/S/D)
UPR LAKE MARION  NOT AVBL
WINYAH BAY       0645   37     360/  4     1025.0
LAKE MURRAY      0700   35     360/  1/  3 1026.1R
ACE BASIN NERRS  NOT AVBL
FORT PULASKI     0700   44 52  360/  6/  7 1026.7R
SAPELO ISLAND    0700   38     360/  5     1026.0R

$$

ANZ835-935-AMZ111-154-330-350-352-354-370-450-454-472-310900-
...C-MAN AND BUOY OBSERVATIONS...

STATION/POSITION TIME  TEMP    WIND        PRES    WAVE   SWELL
                       AIR SEA DIR/SP/G            HT/PER HT/PER/DIR
                 (UTC) (F)     (DEG/KT/KT) (MB)    (FT/S) (FT/S/D)
BUOY 41004       0750   49 68  360/ 23/ 29 1024.5R   7/ 7   2/12
BUOY 41008       0750   51 54   30/ 16/ 19 1025.3R   3/ 5
FOLLY BEACH CMAN 0700   41     360/ 14/ 16 1026.7R
CAPERS NEARSHORE 0700   43      30/ 21/ 25   N/A
FRIPP NEARSHORE  0700   46      30/ 17/ 21 1025.2R


STATION/POSITION TIME  TEMP    WIND        PRES    WAVE   SWELL
                       AIR SEA DIR/SP/G            HT/PER HT/PER/DIR
                 (UTC) (F)     (DEG/KT/KT) (MB)    (FT/S) (FT/S/D)
5E ST. MARYS GA  0721      56                N/A     3/ 4
FRYING PAN BUOY  0750   41 62  350/ 23/ 29 1025.4R   8/ 6
BUOY 41025       0750   37 67  330/ 27/ 35 1022.1R   8/ 9   3/ 30/ 9
CAPE LOOKOUT NC  0700   35     330/ 22/ 25 1024.4R
BUOY 41002       0750   56 71  330/ 23/ 33 1020.1R  13/ 9
BUOY 41010       0720   63 73  360/ 19/ 25 1022.1F
ST AUGUSTINE FL  0800   55      10/ 17/ 19 1025.1F


$$


USA.gov is the U.S. government's official web portal to all federal, state and local government web resources and services.